Regional Weather Roundup
Issued by NWS Upton, NY

Current Version | Previous Version | Graphics & Text | Print | Product List | Glossary Off
Versions: 1 2 3 4 5 6 7 8 9 10 11 12 13 14 15 16 17 18 19 20 21 22 23 24 25 26 27

000
ASUS41 KOKX 142009
RWROKX

REGIONAL WEATHER ROUNDUP
NATIONAL WEATHER SERVICE NEW YORK NY
300 PM EST THU DEC 14 2017

NOTE: "FAIR" INDICATES FEW OR NO CLOUDS BELOW 12,000 FEET WITH NO
SIGNIFICANT WEATHER AND/OR OBSTRUCTIONS TO VISIBILITY.

NYZ071-072-176-178-NJZ106-104-142100-
NEW YORK CITY METRO AREA

CITY           SKY/WX    TMP DP  RH WIND       PRES   REMARKS
Central Park   MOSUNNY   31  11  43 NW9G21    29.87R WCI  23
Bronx Bot Gard   N/A     32  12  43 NW2       29.87R
Bronx Lehman C NOT AVBL
LaGuardia APRT MOSUNNY   32  14  47 NW20G29   29.86R WCI  20
Queens College NOT AVBL
Kennedy INTL   MOSUNNY   32  15  49 W18G28    29.86R WCI  20
Breezy Point     N/A    N/A N/A N/A NW13G23     N/A
Brooklyn Coll  NOT AVBL
Staten Island  NOT AVBL
Newark/Liberty MOSUNNY   31  13  47 W18G26    29.86R WCI  19
Teterboro      SUNNY     31   9  39 NW17      29.86R WCI  19
$$

NYZ177-179-078>081-142100-
LONG ISLAND NEW YORK

CITY           SKY/WX    TMP DP  RH WIND       PRES   REMARKS
Jones Beach      N/A     32 N/A N/A NW21G28     N/A  WCI  20
Wantagh        NOT AVBL
Matinecock PT    N/A     32 N/A N/A W30G37      N/A  WCI  18
Farmingdale    MOSUNNY   31  14  49 NW14G24   29.83R WCI  21
MacArthur/ISP  PTSUNNY   32  17  54 NW12      29.81R WCI  23
Shirley        PTSUNNY   30  17  58 W14G22    29.81R WCI  19
Mt Sinai Harb    N/A    N/A N/A N/A NW10G18     N/A
Westhampton    PTSUNNY   30  16  56 NW15G23   29.81R WCI  19
East Hampton   PTSUNNY   29  15  55 NW10G20   29.79R WCI  20
Southold       NOT AVBL
Montauk          N/A     31  16  54 NW15G25   29.78R WCI  20
$$

NYZ052-065-067-142100-
HUDSON VALLEY

CITY           SKY/WX    TMP DP  RH WIND       PRES   REMARKS
White Plains   MOSUNNY   28  12  51 NW21G26   29.81R WCI  15
Larchmont Harb   N/A    N/A N/A N/A W18G24      N/A
Croton On Huds   N/A    N/A N/A N/A NW23G30     N/A
Somers         NOT AVBL
Brewster       NOT AVBL
Newburgh       MOSUNNY   27  12  54 NW17G29   29.83R WCI  14
Montgomery     SUNNY     26   6  42 NW13G20   29.83R WCI  15
Otisville      NOT AVBL
Warwick        NOT AVBL
Suffern        NOT AVBL
Poughkeepsie   SUNNY     28   6  39 W16G24    29.83R WCI  16
Albany         MOSUNNY   19   2  47 W20G31    29.85R WCI   3
$$

NJZ001-105-106-008-010-013-015-019>022-104-142100-
NEW JERSEY

CITY           SKY/WX    TMP DP  RH WIND       PRES   REMARKS
Newark/Liberty MOSUNNY   31  13  47 W18G26    29.86R WCI  19
Teterboro      SUNNY     31   9  39 NW17      29.86R WCI  19
Caldwell       PTSUNNY   29  11  47 NW14      29.87R WCI  18
Somerville     SUNNY     29  12  49 NW16G22   29.87R WCI  17
Linden         FAIR      31  12  45 NW17G23   29.87R WCI  19
Perth Amboy      N/A    N/A N/A N/A NW18G24     N/A
Sussex         MOSUNNY   26   8  46 NW8G16    29.85R WCI  18
Andover        NOT AVBL
Trenton        MOSUNNY   31  14  49 NW14G21   29.88R WCI  21
Millville      SUNNY     34  17  50 NW21G28   29.89R WCI  22
Atlantic City  SUNNY     36  18  48 NW21G30   29.86R WCI  25
Wrightstown    PTSUNNY   32  16  51 NW15G24   29.84R WCI  22
Toms River     PTSUNNY   33  17  51 NW16G24   29.87R WCI  23
Belmar         MOSUNNY   33  16  49 W15G25    29.86  WCI  23
$$

PAZ047>061-062-071-142100-
EASTERN PENNSYLVANIA

CITY           SKY/WX    TMP DP  RH WIND       PRES   REMARKS
Philadelphia   MOSUNNY   33  13  43 NW15G28   29.91R WCI  23
Allentown      PTSUNNY   30  13  49 W17G23    29.88R WCI  18
Scranton       MOSUNNY   24   7  48 NW15      29.87R WCI  11
$$

CTZ002-004>006-009-010-012-RIZ004-006-007-MAZ004-011-015-142100-
SOUTHERN NEW ENGLAND
 IN CT

CITY           SKY/WX    TMP DP  RH WIND       PRES   REMARKS
Bradley INTL   MOSUNNY   25   4  40 N17G26    29.79R WCI  12
Hartford       MOSUNNY   27   5  39 NW16G24   29.80R WCI  15
Danbury        MOSUNNY   29  11  47 NW8       29.81R WCI  21
Wtrbury/Oxford MOSUNNY   27  12  53 W14G21    29.76R WCI  16
Norwalk Harbor   N/A    N/A N/A N/A W25G31      N/A
Bridgeport     PTSUNNY   31  14  49 NW10G21   29.81R WCI  22
Meriden        SUNNY     28  10  46 NW12G20   29.79R WCI  18
New Haven      MOSUNNY   30  13  49 NW10G21   29.80R WCI  21
Chester        FAIR      28   9  43 NW12G24   29.76R WCI  18
Groton         SUNNY     30  11  45 NW14G24   29.77R WCI  19
Wilimantic     SUNNY     27   6  41 W18G25    29.77R WCI  14

 IN RI

CITY           SKY/WX    TMP DP  RH WIND       PRES   REMARKS
Providence     MOSUNNY   29  12  49 NW16G23   29.73R WCI  17
Block Island   PTSUNNY   29  18  63 NW13G20   29.75R WCI  19
Westerly       SUNNY     30  11  45 NW8G25    29.76R WCI  22
 IN MA

CITY           SKY/WX    TMP DP  RH WIND       PRES   REMARKS
Boston         PTCLDY    29   3  33 W15G25    29.70R WCI  18
Worcester      SUNNY     22   1  40 NW15G26   29.66R WCI   9
Westfield      SUNNY     23   2  40 NW14G21   29.79R WCI  11
Provincetown   PTCLDY    29  15  56 W18G25    29.69R WCI  16
Nantucket      CLEAR     29  19  66 NW14      29.71R WCI  18
$$

ANZ330-335-338-340-345-350-353-355-142100-
COASTAL MARINE OBSERVATIONS


STATION/POSITION TIME  SKY/WX   TEMP    WIND        PRES    VSBY  WAVE
                                AIR SEA DIR/SP/G                  HT/PER
                 (UTC)          (F)     (DEG/KT/KT) (MB)    (MI)  (FT/S)
NY HARB ENTRANCE 1850            33 53  300/ 17/ 23 1008.5          4/ 8
20 S FIRE ISLAND 1850            33 52  310/ 17/ 23 1008.7          6/ 8
GREAT SOUTH BAY  1900            31 45  290/ 16/ 19   N/A
HUDSON CANYON    1850            39 56  320/ 23/ 31 1006.4         10/ 8
KINGS POINT      1948            31 43  360/ 17/ 22 1011.5
EXECUTION ROCKS  1930            36     290/ 17/ 25   N/A
WESTERN LI SOUND NOT AVBL
CENTRAL LI SOUND NOT AVBL
ROBBINS REEF     1948            31     300/ 15/ 20 1011.4
$$


>>>>>>>>>>>>>>>>>>>>>>>>>>>> KEY <<<<<<<<<<<<<<<<<<<<<<<<<<<
>                                                          <
>     SKY/WX - Sky Condition/Present Weather               <
>     TMP    - Temperature in Fahrenheit                   <
>     DP     - Dew Point in Fahrenheit                     <
>     RH     - Relative Humidity in Percent                <
>     WIND   - Direction (from) and Speed in MPH           <
>     PRES   - Mean Sea Level Pressure (inches of Hg)      <
>     WCI    - Wind Chill Index                            <
>     VSB    - VISIBILITY IN MILES                         <
>     HX     - HEAT INDEX                                  <
>     TC     - TEMPERATURE IN CELSIUS                      <
>     VRB    - VARIABLE WIND DIRECTION                     <
>                                                          <
>>>>>>>>>>>>>>>>>>>>>>>>>>>> KEY <<<<<<<<<<<<<<<<<<<<<<<<<<<




USA.gov is the U.S. government's official web portal to all federal, state and local government web resources and services.